GW4756 Weather Reports


time (UTC)temp
F
wind
direction
speed
knots
gust
knots
rain 1hr
in
rain 24hr
in
rain mn
in
humidity
%
barometer
mb
20260505181836 81 53 0.0 7.8 0.00 0.00 0.00 42 1015.4
20260505181336 81 200 0.9 9.6 0.00 0.00 0.00 41 1015.7
20260505180837 81 147 0.9 9.6 0.00 0.00 0.00 41 1015.7
20260505180336 80 267 3.5 7.0 0.00 0.00 0.00 42 1015.6
20260505175836 80 117 1.7 7.8 0.00 0.00 0.00 40 1015.6
20260505175336 80 236 2.6 7.8 0.00 0.00 0.00 41 1015.6
20260505174836 80 208 1.7 6.1 0.00 0.00 0.00 41 1015.7
20260505174336 79 179 1.7 5.2 0.00 0.00 0.00 43 1015.7
20260505174054 79 245 0.9 5.2 0.00 0.00 0.00 42 1015.7
20260505173603 79 68 1.7 3.5 0.00 0.00 0.00 43 1016.0
20260505172836 80 138 0.9 7.0 0.00 0.00 0.00 43 1015.8
20260505172336 79 305 0.0 9.6 0.00 0.00 0.00 44 1015.8
20260505171836 79 275 7.0 9.6 0.00 0.00 0.00 46 1015.7
20260505171336 79 322 0.9 6.1 0.00 0.00 0.00 48 1015.8
20260505171058 78 160 1.7 5.2 0.00 0.00 0.00 46 1015.9
20260505170600 78 187 1.7 6.1 0.00 0.00 0.00 47 1015.7
20260505165836 78 340 0.9 6.1 0.00 0.00 0.00 45 1015.8
20260505165336 78 100 0.9 7.0 0.00 0.00 0.00 45 1016.1
20260505164836 78 271 1.7 7.0 0.00 0.00 0.00 47 1016.1
20260505164336 78 178 1.7 5.2 0.00 0.00 0.00 47 1016.2
20260505163837 77 203 0.9 5.2 0.00 0.00 0.00 49 1016.4
20260505163553 77 179 1.7 6.1 0.00 0.00 0.00 48 1016.1
20260505163341 77 179 1.7 6.1 0.00 0.00 0.00 48 1016.1
20260505163102 77 154 1.7 7.0 0.00 0.00 0.00 50 1016.3
20260505162336 76 197 0.9 7.0 0.00 0.00 0.00 50 1016.2
20260505161837 76 261 1.7 6.1 0.00 0.00 0.00 49 1016.2
20260505161559 76 154 0.9 6.1 0.00 0.00 0.00 48 1016.4
20260505161104 76 54 0.9 6.1 0.00 0.00 0.00 50 1016.3
20260505160336 75 77 1.7 5.2 0.00 0.00 0.00 50 1016.3
20260505153336 74 215 1.7 3.5 0.00 0.00 0.00 54 1016.8
20260505152836 74 244 0.0 5.2 0.00 0.00 0.00 55 1016.7
20260505152337 73 287 1.7 5.2 0.00 0.00 0.00 56 1016.6
20260505151837 73 241 0.9 3.5 0.00 0.00 0.00 56 1016.7
20260505151336 73 123 0.9 3.5 0.00 0.00 0.00 57 1016.9
20260505150838 72 290 1.7 5.2 0.00 0.00 0.00 58 1016.9
20260505150336 72 254 0.9 5.2 0.00 0.00 0.00 58 1017.3
20260505140553 68 246 3.5 7.8 0.00 0.00 0.00 65 1016.8
20260505124836 63 254 4.3 7.8 0.00 0.00 0.00 72 1016.9
20260505124336 62 269 3.5 7.8 0.00 0.00 0.00 72 1016.9
20260505123836 62 275 1.7 7.0 0.00 0.00 0.00 72 1016.9
20260505123556 61 251 2.6 7.0 0.00 0.00 0.00 73 1016.9
20260505122836 61 205 0.9 6.1 0.00 0.00 0.00 73 1017.0
20260505122337 61 267 0.0 5.2 0.00 0.00 0.00 74 1016.9
20260505121836 60 266 0.0 5.2 0.00 0.00 0.00 74 1016.9
20260505121336 60 250 1.7 5.2 0.00 0.00 0.00 74 1017.0
20260505120836 60 258 0.0 5.2 0.00 0.00 0.00 74 1016.8
20260505120336 59 252 0.0 2.6 0.00 0.00 0.00 75 1016.8
20260505115836 59 236 1.7 2.6 0.00 0.00 0.00 75 1016.8
20260505115336 59 277 1.7 2.6 0.00 0.00 0.00 75 1016.7
20260505114836 58 268 0.9 2.6 0.00 0.00 0.00 76 1016.8
20260505114336 58 225 0.0 2.6 0.00 0.00 0.00 76 1016.7
20260505113836 58 256 0.9 2.6 0.00 0.00 0.00 76 1016.9
20260505113336 57 250 0.9 1.7 0.00 0.00 0.00 76 1016.8
20260505112836 57 232 0.0 1.7 0.00 0.00 0.00 76 1016.5
20260505112336 57 232 0.0 0.9 0.00 0.00 0.00 76 1016.6
20260505111836 57 232 0.0 0.9 0.00 0.00 0.00 76 1016.5
20260505111336 57 232 0.0 0.9 0.00 0.00 0.00 76 1016.2
20260505110836 56 232 0.0 0.9 0.00 0.00 0.00 75 1016.3
20260505110336 56 232 0.9 1.7 0.00 0.00 0.00 75 1016.3
20260505102101 56 263 0.9 1.7 0.00 0.00 0.00 75 1015.8
20260505101336 56 263 0.9 1.7 0.00 0.00 0.00 75 1015.8
20260505100837 56 239 0.9 1.7 0.00 0.00 0.00 75 1015.6
20260505100336 56 233 0.0 1.7 0.00 0.00 0.00 75 1015.8
20260505095336 56 211 0.0 0.9 0.00 0.00 0.00 76 1015.8
20260505094836 56 210 0.0 1.7 0.00 0.00 0.00 75 1015.4
20260505094336 56 210 0.0 3.5 0.00 0.00 0.00 75 1015.5
20260505094102 56 215 1.7 3.5 0.00 0.00 0.00 75 1015.7
20260505093340 56 184 0.0 1.7 0.00 0.00 0.00 75 1015.6
20260505092836 56 235 0.0 0.9 0.00 0.00 0.00 75 1015.5
20260505092336 56 235 0.0 0.9 0.00 0.00 0.00 75 1015.4
20260505091836 56 257 0.0 0.0 0.00 0.00 0.00 74 1015.4
20260505091337 56 257 0.0 0.0 0.00 0.00 0.00 74 1015.3
20260505090836 56 257 0.0 0.0 0.00 0.00 0.00 74 1015.4
20260505090336 56 257 0.0 0.0 0.00 0.00 0.00 74 1015.4
20260505085836 56 257 0.0 0.0 0.00 0.00 0.00 74 1015.4
20260505085557 56 257 0.0 0.0 0.00 0.00 0.00 73 1015.5
20260505084836 57 257 0.0 0.0 0.00 0.00 0.00 73 1015.2
20260505084336 57 257 0.0 0.0 0.00 0.00 0.00 73 1015.3
20260505083836 57 257 0.0 0.0 0.00 0.00 0.00 73 1015.3
20260505083336 57 257 0.0 0.0 0.00 0.00 0.00 72 1015.3
20260505083055 57 257 0.0 0.0 0.00 0.00 0.00 72 1015.4
20260505082336 57 257 0.0 0.0 0.00 0.00 0.00 71 1015.4
20260505081836 58 257 0.0 0.0 0.00 0.00 0.00 71 1015.3
20260505080836 58 257 0.0 0.0 0.00 0.00 0.00 72 1015.2
20260505080336 58 257 0.0 0.0 0.00 0.00 0.00 71 1015.2
20260505080057 58 257 0.0 0.0 0.00 0.00 0.00 71 1015.1
20260505075336 58 257 0.0 0.0 0.00 0.00 0.00 71 1015.1
20260505075043 58 256 0.0 0.0 0.00 0.00 0.00 71 1015.1
20260505074323 58 256 0.0 0.0 0.00 0.00 0.00 71 1015.2
20260505073823 58 256 0.0 0.0 0.00 0.00 0.00 71 1015.1
20260505073323 58 256 0.0 0.0 0.00 0.00 0.00 70 1015.0
20260505072823 59 257 0.0 0.0 0.00 0.00 0.00 70 1014.9
20260505072322 59 257 0.0 0.0 0.00 0.00 0.00 69 1015.0
20260505071823 59 257 0.0 0.0 0.00 0.00 0.00 69 1015.0
20260505071323 59 257 0.0 0.0 0.00 0.00 0.00 69 1014.9
20260505070822 59 257 0.0 0.0 0.00 0.00 0.00 68 1014.8
20260505070322 59 257 0.0 0.0 0.00 0.00 0.00 68 1014.8
20260505065822 60 257 0.0 0.0 0.00 0.00 0.00 68 1014.9
20260505065541 60 257 0.0 0.0 0.00 0.00 0.00 68 1014.9
20260505064823 60 257 0.0 0.0 0.00 0.00 0.00 67 1015.1
20260505064323 60 257 0.0 0.0 0.00 0.00 0.00 68 1014.9
20260505064041 60 257 0.0 0.0 0.00 0.00 0.00 67 1014.9
20260505063547 60 295 0.0 0.9 0.00 0.00 0.00 67 1014.9
20260505062823 61 295 0.0 0.9 0.00 0.00 0.00 67 1014.8
20260505062323 61 296 0.0 0.9 0.00 0.00 0.00 67 1014.9
20260505061823 61 296 0.0 0.9 0.00 0.00 0.00 67 1015.0
20260505061323 61 296 0.0 0.9 0.00 0.00 0.00 66 1015.0
20260505060823 61 296 0.0 1.7 0.00 0.00 0.00 66 1014.9
20260505060323 61 296 0.9 1.7 0.00 0.00 0.00 66 1014.9
20260505055823 62 297 0.0 1.7 0.00 0.00 0.00 65 1015.0
20260505055323 62 297 0.0 2.6 0.00 0.00 0.00 66 1014.9
20260505054823 62 326 0.0 2.6 0.00 0.00 0.00 66 1014.8
20260505054322 62 270 0.0 0.9 0.00 0.00 0.00 66 1014.9
20260505053823 62 270 0.0 0.9 0.00 0.00 0.00 66 1015.0
20260505053323 62 255 0.0 0.9 0.00 0.00 0.00 65 1015.0
20260505052823 62 11 0.0 0.9 0.00 0.00 0.00 65 1015.3
20260505052323 62 78 0.0 0.9 0.00 0.00 0.00 65 1015.0
20260505051823 62 66 0.0 2.6 0.00 0.00 0.00 65 1015.0
20260505051541 63 49 0.0 2.6 0.00 0.00 0.00 64 1015.2
20260505050822 63 188 0.0 1.7 0.00 0.00 0.00 64 1015.1
20260505050322 63 212 0.0 1.7 0.00 0.00 0.00 64 1015.0
20260505041322 64 162 0.0 2.6 0.00 0.00 0.00 61 1014.9
20260505040822 64 238 0.9 2.6 0.00 0.00 0.00 62 1015.0
20260505040322 65 47 0.0 2.6 0.00 0.00 0.00 61 1015.0
20260505035823 65 301 0.9 2.6 0.00 0.00 0.00 61 1014.9
20260505035323 65 157 0.9 6.1 0.00 0.00 0.00 61 1015.0
20260505034822 65 277 0.9 6.1 0.00 0.00 0.00 61 1015.0
20260505034322 65 91 0.0 2.6 0.00 0.00 0.00 61 1014.9
20260505033823 65 328 0.0 3.5 0.00 0.00 0.00 60 1014.8
20260505033323 65 121 0.9 3.5 0.00 0.00 0.00 61 1014.9
20260505032823 66 286 0.9 2.6 0.00 0.00 0.00 60 1015.0
20260505032323 66 219 0.0 2.6 0.00 0.00 0.00 60 1015.0
20260505031822 66 93 0.9 2.6 0.00 0.00 0.00 60 1015.1
20260505031549 66 134 0.9 2.6 0.00 0.00 0.00 60 1015.1
20260505030823 66 119 0.9 2.6 0.00 0.00 0.00 59 1014.7
20260505030323 67 306 0.0 2.6 0.00 0.00 0.00 60 1014.8
20260505025824 67 145 0.0 2.6 0.00 0.00 0.00 59 1014.9
20260505025311 67 342 0.9 1.7 0.00 0.00 0.00 59 1014.8
20260505024811 67 104 0.0 1.7 0.00 0.00 0.00 59 1014.8
20260505024531 67 135 1.7 3.5 0.00 0.00 0.00 58 1014.9
20260505023810 67 215 0.9 3.5 0.00 0.00 0.00 58 1014.8
20260505023311 68 38 0.0 3.5 0.00 0.00 0.00 57 1014.9
20260505022811 68 250 0.9 3.5 0.00 0.00 0.00 57 1014.8
20260505022311 68 70 0.9 6.1 0.00 0.00 0.00 56 1014.8
20260505022033 68 181 0.9 6.1 0.00 0.00 0.00 55 1014.6
20260505021310 69 301 1.7 3.5 0.00 0.00 0.00 54 1014.6
20260505020810 69 124 1.7 5.2 0.00 0.00 0.00 51 1014.5
20260505020311 69 173 0.9 5.2 0.00 0.00 0.00 51 1014.5
20260505015811 69 181 0.9 6.1 0.00 0.00 0.00 49 1014.4
20260505015305 70 319 1.7 6.1 0.00 0.00 0.00 48 1014.2
20260505014758 70 350 1.7 3.5 0.00 0.00 0.00 47 1014.3
20260505013758 70 339 0.9 1.7 0.00 0.00 0.00 44 1014.2
20260505013258 70 339 0.0 0.9 0.00 0.00 0.00 44 1014.0
20260505012758 70 339 0.0 0.9 0.00 0.00 0.00 43 1014.1
20260505012258 71 339 0.0 1.7 0.00 0.00 0.00 43 1014.1
20260505011758 71 339 0.0 1.7 0.00 0.00 0.00 42 1013.9
20260505011258 71 339 0.0 1.7 0.00 0.00 0.00 42 1014.0
20260505010758 71 38 0.9 1.7 0.00 0.00 0.00 42 1013.9
20260505010522 71 38 0.9 1.7 0.00 0.00 0.00 42 1013.8
20260505005759 71 134 0.0 1.7 0.00 0.00 0.00 41 1013.8
20260505005259 72 134 0.9 1.7 0.00 0.00 0.00 41 1013.7
20260505004758 72 86 0.0 2.6 0.00 0.00 0.00 41 1013.5
20260505003759 72 356 0.0 1.7 0.00 0.00 0.00 40 1013.5
20260505003258 72 356 0.0 1.7 0.00 0.00 0.00 40 1013.4
20260505003020 73 108 0.0 0.9 0.00 0.00 0.00 40 1013.2
20260505002247 73 108 0.0 1.7 0.00 0.00 0.00 39 1013.3
20260505001747 73 107 0.0 1.7 0.00 0.00 0.00 39 1013.2
20260505001247 73 329 0.0 1.7 0.00 0.00 0.00 38 1013.2
20260505000747 74 330 0.0 5.2 0.00 0.00 0.00 38 1013.3
20260505000246 74 249 0.0 5.2 0.00 0.00 0.00 38 1013.2
20260504235746 74 192 0.0 2.6 0.00 0.00 0.00 38 1013.2
20260504235246 75 284 1.7 2.6 0.00 0.00 0.00 37 1013.0
20260504234746 75 103 1.7 2.6 0.00 0.00 0.00 37 1013.0
20260504234247 75 231 0.9 2.6 0.00 0.00 0.00 36 1013.0
20260504233746 75 320 0.0 2.6 0.00 0.00 0.00 36 1012.9
20260504233247 76 258 0.9 2.6 0.00 0.00 0.00 35 1012.9
20260504232746 76 252 0.0 3.5 0.00 0.00 0.00 35 1012.8
20260504232247 76 329 0.0 3.5 0.00 0.00 0.00 34 1012.8
20260504231747 76 274 0.0 1.7 0.00 0.00 0.00 34 1012.8
20260504231247 76 275 0.0 5.2 0.00 0.00 0.00 34 1012.6
20260504230747 76 266 3.5 5.2 0.00 0.00 0.00 34 1012.7
20260504230247 77 253 1.7 5.2 0.00 0.00 0.00 34 1012.7
20260504230014 77 280 1.7 3.5 0.00 0.00 0.00 33 1012.6
20260504225247 77 252 1.7 3.5 0.00 0.00 0.00 33 1012.6
20260504224747 77 139 0.9 1.7 0.00 0.00 0.00 33 1012.7
20260504224247 77 120 0.9 6.1 0.00 0.00 0.00 32 1012.8
20260504223747 77 162 0.0 6.1 0.00 0.00 0.00 32 1012.7
20260504223246 77 28 0.9 5.2 0.00 0.00 0.00 31 1012.7
20260504222746 78 162 0.9 2.6 0.00 0.00 0.00 32 1012.8
20260504222246 78 238 0.0 3.5 0.00 0.00 0.00 31 1012.8
20260504221746 78 253 0.9 3.5 0.00 0.00 0.00 32 1012.7
20260504221007 78 154 0.9 6.1 0.00 0.00 0.00 30 1012.8
20260504220247 78 324 0.9 6.1 0.00 0.00 0.00 32 1013.0
20260504215747 78 23 0.0 6.1 0.00 0.00 0.00 32 1012.7
20260504215246 78 298 2.6 9.6 0.00 0.00 0.00 33 1013.0
20260504214746 79 226 0.0 9.6 0.00 0.00 0.00 32 1012.8
20260504214246 79 297 3.5 7.8 0.00 0.00 0.00 32 1012.6
20260504213746 79 242 3.5 6.1 0.00 0.00 0.00 33 1012.8
20260504213507 79 1 0.9 7.0 0.00 0.00 0.00 33 1012.8
20260504212746 79 294 0.0 7.0 0.00 0.00 0.00 34 1012.8
20260504212246 78 243 2.6 6.1 0.00 0.00 0.00 34 1012.9
20260504211747 78 183 0.9 6.1 0.00 0.00 0.00 33 1012.9
20260504211247 78 46 1.7 5.2 0.00 0.00 0.00 32 1012.8
20260504210746 79 245 1.7 7.8 0.00 0.00 0.00 32 1013.0
20260504210504 79 42 0.9 7.8 0.00 0.00 0.00 33 1012.9
20260504210010 79 302 3.5 6.1 0.00 0.00 0.00 34 1012.9
20260504205246 78 256 2.6 5.2 0.00 0.00 0.00 35 1012.8
20260504204746 78 260 0.9 6.1 0.00 0.00 0.00 35 1013.2
20260504204246 78 266 3.5 7.8 0.00 0.00 0.00 34 1013.0
20260504203746 78 91 1.7 7.8 0.00 0.00 0.00 31 1013.0
20260504203247 78 227 5.2 7.8 0.00 0.00 0.00 33 1013.3
20260504202747 78 287 3.5 6.1 0.00 0.00 0.00 34 1013.2
20260504202247 79 109 2.6 7.8 0.00 0.00 0.00 33 1013.1
20260504201747 79 12 0.9 7.8 0.00 0.00 0.00 33 1013.2
20260504201247 79 252 1.7 9.6 0.00 0.00 0.00 34 1013.2
20260504200747 79 291 0.9 9.6 0.00 0.00 0.00 33 1013.4
20260504200247 79 283 1.7 7.8 0.00 0.00 0.00 33 1013.4
20260504195747 79 239 1.7 8.7 0.00 0.00 0.00 35 1013.3
20260504195247 78 236 0.9 8.7 0.00 0.00 0.00 34 1013.5
20260504194747 78 281 3.5 8.7 0.00 0.00 0.00 32 1013.6
20260504194246 78 269 5.2 6.1 0.00 0.00 0.00 34 1013.6
20260504193746 78 288 1.7 12.2 0.00 0.00 0.00 33 1013.7
20260504193247 78 257 4.3 12.2 0.00 0.00 0.00 34 1013.7
20260504192747 78 251 3.5 8.7 0.00 0.00 0.00 34 1013.7
20260504192247 78 250 4.3 6.1 0.00 0.00 0.00 35 1013.8
20260504191746 78 100 2.6 5.2 0.00 0.00 0.00 34 1013.7
20260504191246 78 68 3.5 7.0 0.00 0.00 0.00 34 1013.9
20260504190746 78 313 0.9 9.6 0.00 0.00 0.00 34 1013.9
20260504190247 78 233 1.7 9.6 0.00 0.00 0.00 34 1014.2
20260504185507 79 297 4.3 11.3 0.00 0.00 0.00 35 1014.2
20260504184746 79 294 3.5 7.0 0.00 0.00 0.00 34 1014.3
20260504184246 78 298 4.3 11.3 0.00 0.00 0.00 35 1014.5
20260504183746 78 249 5.2 11.3 0.00 0.00 0.00 33 1014.5
20260504183247 78 310 4.3 7.8 0.00 0.00 0.00 34 1014.2
20260504182747 78 221 1.7 7.8 0.00 0.00 0.00 34 1014.6
20260504182247 78 287 3.5 7.8 0.00 0.00 0.00 35 1014.6